Regional Weather Roundup
Issued by NWS Boston, MA

Current Version | Previous Version | Text Only | Print | Product List | Glossary On
Versions: 1 2 3 4 5 6 7 8 9 10 11 12 13 14 15 16 17 18 19 20 21 22 23 24 25 26 27 28 29 30 31 32 33 34 35 36 37 38 39 40 41 42 43 44 45 46 47 48 49 50
000 ASUS41 KBOX 261910 RWRBOX REGIONAL WEATHER ROUNDUP NATIONAL WEATHER SERVICE TAUNTON MA 300 PM EDT SAT JUL 26 2014 NOTE: "FAIR" INDICATES FEW OR NO CLOUDS BELOW 12,000 FEET WITH NO SIGNIFICANT WEATHER AND/OR OBSTRUCTIONS TO VISIBILITY. THE FOLLOWING OBSERVATION LOCATIONS DO NOT REPORT PRESENT WEATHER...PROVINCETOWN... SMITHFIELD...BLOCK ISLAND...KEENE...AND OXFORD. MAZALL-262000- EASTERN MASSACHUSETTS CITY SKY/WX TMP DP RH WIND PRES REMARKS BOSTON PTSUNNY 83 53 35 SW14G22 29.89F BEVERLY PTSUNNY 81 56 42 SW7 29.88F LAWRENCE SUNNY 82 56 40 W13 29.90F BEDFORD PTSUNNY 81 54 39 SW14 29.88F BLUE HILL N/A 79 55 43 W14 29.92F NORWOOD MOSUNNY 81 55 40 W12G22 29.90F MARSHFIELD MOSUNNY 81 61 50 SW7G20 29.92S PLYMOUTH MOSUNNY 78 61 55 SW16 29.93S TAUNTON PTSUNNY 79 60 52 SW13G21 29.92F NEW BEDFORD PTSUNNY 77 61 57 SW14 29.93F $$ MAZALL-262000- CAPE COD AND THE ISLANDS CITY SKY/WX TMP DP RH WIND PRES REMARKS FALMOUTH PTSUNNY 77 66 69 SW13 29.95S HYANNIS PTSUNNY 74 68 81 S15 29.94F CHATHAM PTSUNNY 74 68 81 S10G22 29.97F PROVINCETOWN MOSUNNY 75 68 78 S10G21 29.92F NANTUCKET CLOUDY 70 65 84 S12 29.98F MARTHAS VNYRD CLOUDY 72 68 87 SW10 29.96F $$ MAZALL-262000- CENTRAL AND WESTERN MASSACHUSETTS CITY SKY/WX TMP DP RH WIND PRES REMARKS WORCESTER PTSUNNY 78 53 41 W14 29.94F FITCHBURG MOSUNNY 84 54 35 SW9G20 29.92F ORANGE MOSUNNY 81 51 35 SW15G21 29.91F SPRINGFIELD PTSUNNY 81 61 50 W10 29.91F WESTFIELD PTSUNNY 82 59 45 SW13 29.91F NORTH ADAMS MOSUNNY 77 54 44 SW8 29.92F PITTSFIELD MOSUNNY 75 56 51 SW9 29.93F $$ RIZALL-262000- RHODE ISLAND CITY SKY/WX TMP DP RH WIND PRES REMARKS PROVIDENCE CLOUDY 78 58 49 SW13G23 29.94F NEWPORT CLOUDY 73 63 70 SW9G18 29.95F BLOCK ISLAND CLOUDY 75 64 69 SW16 29.97F SMITHFIELD CLOUDY 77 57 50 SW8 29.95S WESTERLY CLOUDY 76 61 59 SW10 29.96F $$ CTZALL-262000- CONNECTICUT CITY SKY/WX TMP DP RH WIND PRES REMARKS BRADLEY INTL PTSUNNY 79 59 50 SW12 29.92S HARTFORD LGT RAIN 76 59 55 SW7 29.93S BRIDGEPORT CLOUDY 77 62 59 SW6 29.95F DANBURY CLOUDY 74 60 61 VRB5 29.97F GROTON LGT RAIN 74 61 63 SW7 29.94F NEW HAVEN CLOUDY 78 60 53 SW3 29.95F CHESTER FAIR 72 61 68 SW5 29.97S MERIDEN CLOUDY 76 59 55 SW6 29.95S WILLIMANTIC CLOUDY 78 58 49 SW9 29.94S OXFORD PTSUNNY 73 61 64 W6 29.98F $$ MEZ002-015-021-024-NHZ003-005-008-011-012-014-VTZ005-008-262000- NORTHERN NEW ENGLAND CITY SKY/WX TMP DP RH WIND PRES REMARKS PORTLAND ME PTSUNNY 76 62 62 S8G17 29.87F BANGOR ME PTSUNNY 79 56 45 S9 29.86F CONCORD NH MOSUNNY 79 55 43 SW10 29.89F MANCHESTER NH PTSUNNY 82 50 32 W9 29.87F NASHUA NH MOSUNNY 83 55 37 W10G17 29.90F PORTSMOUTH NH PTSUNNY 84 54 36 SW7 29.87F JAFFREY NH MOSUNNY 78 52 40 W12G17 29.94S KEENE NH MOSUNNY 79 50 36 W8 29.91S BURLINGTON VT CLOUDY 80 52 37 SW8 29.87F MT. WASHINGTON PTSUNNY 50 41 71 W28 N/A $$ NYZ052-076-262000- EASTERN NEW YORK CITY SKY/WX TMP DP RH WIND PRES REMARKS ALBANY PTSUNNY 80 57 45 VRB5 29.90F NEW YORK CITY PTSUNNY 81 57 43 SW10 29.94S $$ ANZALL-262000- MARINE OBSERVATIONS STATION/POSITION TIME TEMP WIND PRES VSBY WAVE AIR SEA DIR/SP/G HT/PER (UTC) (F) (DEG/KT/KT) (MB) (MI) (FT/S) BOSTON BUOY NOT AVBL BUZZARDS BAY NOT AVBL NANTUCKET SOUND NOT AVBL MASS BAY-STELLWA NOT AVBL ISLE OF SHOALS NOT AVBL S OF BLOCK IS NOT AVBL $$ ......................KEY......................... SKY/WX - SKY CONDITION/PRESENT WEATHER TMP - TEMPERATURE IN FAHRENHEIT DWPT - DEWPOINT IN FAHRENHEIT RH - RELATIVE HUMIDITY IN PERCENT WIND - DIRECTION AND SPEED IN MPH PRES - MEAN SEA LEVEL PRESSURE IN INCHES OF HG WCI - WIND CHILL INDEX VSB - VISIBILITY IN MILES HX - HEAT INDEX TC - TEMPERATURE IN CELSIUS VRB - VARIABLE WIND DIRECTION N/A - NOT AVAILABLE

USA.gov is the U.S. government's official web portal to all federal, state and local government web resources and services.